Cherokee, North Carolina, United States (28719)
Lat: 35.47N, Lon: 83.31W
Wx Zone: NCZ051
Local Info
Past Weather Observations for Today

NOTE: This archive is for the closest National Weather Service station to Cherokee. Information may differ from the station used for current weather conditions.

Click here for Long-term Archive

Time Weather Temperature Dewpoint Humidity Pressure Winds Precip Visibility
23:35
Fair
N/A N/A N/A 30.12 in
(1020 mb)
Calm -
23:15
Fair
N/A N/A N/A 30.12 in
(1020 mb)
Calm -
22:55
Fair
N/A N/A N/A 30.12 in
(1020 mb)
Calm -
22:35
Fair
N/A N/A N/A 30.12 in
(1020 mb)
Calm -
22:15
Fair
N/A N/A N/A 30.12 in
(1020 mb)
Calm -
21:55
Fair
68°F / 20°C 68°F / 20°C 100% 30.12 in
(1020 mb)
Calm -
21:35
Fair
N/A N/A N/A 30.12 in
(1020 mb)
Calm -
21:15
Fair
N/A N/A N/A 30.12 in
(1020 mb)
Calm -
20:55
Fair
N/A N/A N/A 30.09 in
(1019 mb)
Calm 0.01 in
(0.25 mm)
20:35
Fair
N/A N/A N/A 30.09 in
(1019 mb)
Calm 0.01 in
(0.25 mm)
20:15
Fair
73°F / 23°C 73°F / 23°C 100% 30.06 in
(1018 mb)
Calm 0.01 in
(0.25 mm)
19:55
Fair
73°F / 23°C 73°F / 23°C 100% 30.06 in
(1018 mb)
Calm -
19:35
Fair
75°F / 24°C 75°F / 24°C 100% 30.06 in
(1018 mb)
Calm -
19:15
Fair
75°F / 24°C 73°F / 23°C 94% 30.06 in
(1018 mb)
Calm -
18:55
Fair
77°F / 25°C 72°F / 22°C 83% 30.06 in
(1018 mb)
Calm -
18:35
Fair
79°F / 26°C 70°F / 21°C 74% 30.06 in
(1018 mb)
Calm -
18:15
Fair
79°F / 26°C 70°F / 21°C 74% 30.06 in
(1018 mb)
Calm -
17:55
Fair
79°F / 26°C 70°F / 21°C 74% 30.06 in
(1018 mb)
ENE 3.5 mph
(ENE 6 kph)
0.01 in
(0.25 mm)
17:35
Fair
79°F / 26°C 70°F / 21°C 74% 30.06 in
(1018 mb)
ENE 3.5 mph
(ENE 6 kph)
0.01 in
(0.25 mm)
17:15
Fair
81°F / 27°C 70°F / 21°C 70% 30.06 in
(1018 mb)
ENE 3.5 mph
(ENE 6 kph)
0.01 in
(0.25 mm)
16:55
Fair
81°F / 27°C 70°F / 21°C 70% 30.04 in
(1017 mb)
Calm 0.01 in
(0.25 mm)
16:35
Fair
82°F / 28°C 68°F / 20°C 62% 30.06 in
(1018 mb)
Calm 0.01 in
(0.25 mm)
16:15
Fair
86°F / 30°C 64°F / 18°C 49% 30.06 in
(1018 mb)
NNW 3.5 mph
(NNW 6 kph)
0.01 in
(0.25 mm)
15:55
Fair
86°F / 30°C 63°F / 17°C 46% 30.04 in
(1017 mb)
NW 4.6 mph
(NW 7 kph)
0.02 in
(0.51 mm)
15:35
Fair
88°F / 31°C 64°F / 18°C 46% 30.04 in
(1017 mb)
NW 5.8 mph
(NW 9 kph)
0.02 in
(0.51 mm)
15:15
Fair
88°F / 31°C 63°F / 17°C 43% 30.06 in
(1018 mb)
N 8.1 mph
(N 13 kph)
-
14:55
Fair
88°F / 31°C 63°F / 17°C 43% 30.06 in
(1018 mb)
NW 5.8 mph
(NW 9 kph)
-
14:35
Fair
88°F / 31°C 66°F / 19°C 49% 30.06 in
(1018 mb)
N 5.8 mph
(N 9 kph)
-
14:15
Fair
86°F / 30°C 66°F / 19°C 52% 30.06 in
(1018 mb)
NE 4.6 mph
(NE 7 kph)
-
13:55
Fair
86°F / 30°C 66°F / 19°C 52% 30.06 in
(1018 mb)
Calm 0.02 in
(0.51 mm)
13:35
Fair
86°F / 30°C 64°F / 18°C 49% 30.06 in
(1018 mb)
N 6.9 mph
(N 11 kph)
0.01 in
(0.25 mm)
13:15
Fair
86°F / 30°C 64°F / 18°C 49% 30.06 in
(1018 mb)
NNW 6.9 mph
(NNW 11 kph)
0.01 in
(0.25 mm)
12:55
Fair
84°F / 29°C 63°F / 17°C 48% 30.09 in
(1019 mb)
N 4.6 mph
(N 7 kph)
0.01 in
(0.25 mm)
12:35
Fair
84°F / 29°C 63°F / 17°C 48% 30.09 in
(1019 mb)
NNW 5.8 mph
(NNW 9 kph)
-
12:15
Fair
82°F / 28°C 64°F / 18°C 55% 30.09 in
(1019 mb)
NW 5.8 mph
(NW 9 kph)
-
11:55
Fair
81°F / 27°C 66°F / 19°C 62% 30.09 in
(1019 mb)
NW 5.8 mph
(NW 9 kph)
-
11:35
Fair
79°F / 26°C 68°F / 20°C 70% 30.12 in
(1020 mb)
Calm -
11:15
Fair
77°F / 25°C 70°F / 21°C 79% 30.12 in
(1020 mb)
Calm -
10:55
Fair
75°F / 24°C 70°F / 21°C 83% 30.12 in
(1020 mb)
Calm -
10:35
Fair
72°F / 22°C 72°F / 22°C 100% 30.12 in
(1020 mb)
Calm -
10:15
Fair
N/A N/A N/A 30.12 in
(1020 mb)
Calm -
09:55
Fair
68°F / 20°C 68°F / 20°C 100% 30.12 in
(1020 mb)
Calm -
09:35
Fair
66°F / 19°C 66°F / 19°C 100% 30.12 in
(1020 mb)
Calm -
09:15
Fair
64°F / 18°C 64°F / 18°C 100% 30.15 in
(1021 mb)
Calm -
08:55
Fair
64°F / 18°C 64°F / 18°C 100% 30.15 in
(1021 mb)
Calm -
08:35
Fair
64°F / 18°C 64°F / 18°C 100% 30.15 in
(1021 mb)
Calm -
08:15
Fair
64°F / 18°C 64°F / 18°C 100% 30.15 in
(1021 mb)
Calm -
07:55
Fair
64°F / 18°C 64°F / 18°C 100% 30.15 in
(1021 mb)
Calm -
07:35
Fair
64°F / 18°C 64°F / 18°C 100% 30.15 in
(1021 mb)
Calm -
07:15
Fair
64°F / 18°C 64°F / 18°C 100% 30.12 in
(1020 mb)
Calm -
06:55
Fair
64°F / 18°C 64°F / 18°C 100% 30.12 in
(1020 mb)
Calm -
06:35
Fair
63°F / 17°C 63°F / 17°C 100% 30.12 in
(1020 mb)
Calm -
06:15
Fair
63°F / 17°C 63°F / 17°C 100% 30.12 in
(1020 mb)
Calm -
05:55
Fair
63°F / 17°C 63°F / 17°C 100% 30.12 in
(1020 mb)
Calm -
05:35
Fair
63°F / 17°C 63°F / 17°C 100% 30.12 in
(1020 mb)
Calm -
05:15
Fair
63°F / 17°C 63°F / 17°C 100% 30.12 in
(1020 mb)
Calm -
04:55
Fair
63°F / 17°C 63°F / 17°C 100% 30.09 in
(1019 mb)
Calm -
04:35
Fair
63°F / 17°C 63°F / 17°C 100% 30.09 in
(1019 mb)
Calm -
04:15
Fair
64°F / 18°C 64°F / 18°C 100% 30.09 in
(1019 mb)
ENE 3.5 mph
(ENE 6 kph)
-
03:55
Fair
64°F / 18°C 64°F / 18°C 100% 30.09 in
(1019 mb)
Calm -
03:35
Fair
64°F / 18°C 64°F / 18°C 100% 30.09 in
(1019 mb)
Calm -
03:15
Fair
64°F / 18°C 64°F / 18°C 100% 30.09 in
(1019 mb)
Calm -
02:55
Fair
64°F / 18°C 64°F / 18°C 100% 30.09 in
(1019 mb)
Calm -
02:35
Fair
64°F / 18°C 64°F / 18°C 100% 30.09 in
(1019 mb)
Calm -
02:15
Fair
64°F / 18°C 64°F / 18°C 100% 30.09 in
(1019 mb)
Calm -
01:55
Fair
64°F / 18°C 64°F / 18°C 100% 30.09 in
(1019 mb)
Calm -
01:35
Fair
64°F / 18°C 64°F / 18°C 100% 30.09 in
(1019 mb)
Calm -
01:15
Fair
64°F / 18°C 64°F / 18°C 100% 30.12 in
(1020 mb)
Calm -
00:55
Fair
66°F / 19°C 66°F / 19°C 100% 30.12 in
(1020 mb)
Calm -
00:35
Fair
66°F / 19°C 66°F / 19°C 100% 30.12 in
(1020 mb)
Calm -
00:15
Fair
66°F / 19°C 66°F / 19°C 100% 30.12 in
(1020 mb)
Calm -
Time Weather Temperature Dewpoint Humidity Pressure Winds Precip Visibility


Weather for websites

WeatherForYou.com, LLC is not responsible for any damages or problems caused by this service. Current weather conditions are obtained from the closest station including government and personal stations which may have varying degrees of accuracy. Weather forecasts are derived from the NOAA NDFD. Like all things, this site belongs to Jesus Christ... He just trusts us to maintain it. If you have any questions or comments email webmaster@weatherforyou.com

Copyright © 2015, WeatherForYou.com LLC. All rights reserved.